{"data":{"norad_id":39533,"intl_designator":"2014-008A","name":"GPS BIIF-5  (PRN 30)","alt_names":[],"object_type":"PAYLOAD","status":"ACTIVE","operator":null,"country":"US","launch_date":"2014-02-21","launch_site_code":"AFETR","launch_vehicle":null,"mission":null,"orbit_class":"UNKNOWN","rcs_meters":19.9413,"size_class":null,"mass_kg":null,"dimensions":null,"purposes":["earth_obs","nav"],"wikipedia_slug":null,"has_3d_model":false,"image_url":null,"decayed_at":null,"tle_current":{"epoch":"2026-05-24T06:03:53.138304Z","epoch_age_seconds":143653,"freshness":"FRESH","line1":"1 39533U 14008A   26144.25269836  .00000082  00000+0  00000+0 0  9992","line2":"2 39533  53.6504 150.2958 0084157 230.8468 128.4269  2.00558262 89205","mean_motion":2.00558262,"eccentricity":0.0084157,"inclination_deg":53.6504,"raan_deg":150.2958,"arg_perigee_deg":230.8468,"mean_anomaly_deg":128.4269,"bstar":0,"rev_number":8920,"period_min":717.99585100114,"perigee_km":19959.154561987,"apogee_km":20406.210338482,"semimajor_km":26560.819450235,"source":"CELESTRAK","updated_at":"2026-05-25T13:38:23.731818Z"}}}